,,PA_Meas_PMT16A,,PR_Meas_QMR101_102,,RH_Meas_QMH101,,SR_Meas_QMS101,,TA_Meas_QMH101,,GenWind,,GenWind,
time,status,PA,status,PR,status,RH,status,SR,status,TA,status,DirAvg,status,SpdAvg,
2013-09-13, 00:00:05,VALID,919.163,VALID,0,VALID,96.7945,VALID,0.107441,VALID,20.8129,VALID,18,VALID,0,
2013-09-13, 00:01:05,VALID,919.138,VALID,0,VALID,96.7945,VALID,0.107441,VALID,20.7934,VALID,18,VALID,0,
2013-09-13, 00:02:05,VALID,919.113,VALID,0,VALID,96.7869,VALID,0.107441,VALID,20.8145,VALID,18,VALID,0,
2013-09-13, 00:03:05,VALID,919.105,VALID,0,VALID,96.8021,VALID,0.107441,VALID,20.8145,VALID,18,VALID,0,
2013-09-13, 00:04:05,VALID,919.129,VALID,0,VALID,96.7793,VALID,0.107441,VALID,20.8324,VALID,18,VALID,0,
2013-09-13, 00:05:05,VALID,919.148,VALID,0,VALID,96.7793,VALID,0.107441,VALID,20.8129,VALID,18,VALID,0,
2013-09-13, 00:06:05,VALID,919.159,VALID,0,VALID,96.7945,VALID,0.107441,VALID,20.8324,VALID,18,VALID,0,
2013-09-13, 00:07:05,VALID,919.142,VALID,0,VALID,96.7869,VALID,0.107441,VALID,20.8129,VALID,18,VALID,0,
2013-09-13, 00:08:05,VALID,919.152,VALID,0,VALID,96.7869,VALID,0,VALID,20.8129,VALID,18,VALID,0,
2013-09-13, 00:09:05,VALID,919.116,VALID,0,VALID,96.7869,VALID,0.107441,VALID,20.8324,VALID,20,VALID,0,
2013-09-13, 00:10:05,VALID,919.119,VALID,0,VALID,96.8098,VALID,0.107441,VALID,20.8324,VALID,25,VALID,0,
2013-09-13, 00:11:05,VALID,919.096,VALID,0,VALID,96.7945,VALID,0.107441,VALID,20.8324,VALID,31,VALID,0,
2013-09-13, 00:12:05,VALID,919.076,VALID,0,VALID,96.7793,VALID,0.107441,VALID,20.7934,VALID,5,VALID,0,
2013-09-13, 00:13:05,VALID,919.048,VALID,0,VALID,96.7869,VALID,0.107441,VALID,20.8129,VALID,304,VALID,0,
2013-09-13, 00:14:05,VALID,919.04,VALID,0,VALID,96.7945,VALID,0.107441,VALID,20.7934,VALID,359,VALID,0,
2013-09-13, 00:15:05,VALID,918.99,VALID,0,VALID,96.7869,VALID,0,VALID,20.795,VALID,5,VALID,0,
2013-09-13, 00:16:05,VALID,919.003,VALID,0,VALID,96.7945,VALID,0,VALID,20.7771,VALID,5,VALID,0,
2013-09-13, 00:17:05,VALID,918.965,VALID,0,VALID,96.7869,VALID,0,VALID,20.7771,VALID,12,VALID,0,
2013-09-13, 00:18:05,VALID,918.925,VALID,0,VALID,96.8098,VALID,0,VALID,20.756,VALID,167,VALID,0,
2013-09-13, 00:19:05,VALID,918.959,VALID,0,VALID,96.7945,VALID,0,VALID,20.7365,VALID,167,VALID,0,
2013-09-13, 00:20:05,VALID,918.916,VALID,0,VALID,96.8021,VALID,0,VALID,20.7185,VALID,73,VALID,0,
2013-09-13, 00:21:05,VALID,918.924,VALID,0,VALID,96.7945,VALID,0,VALID,20.717,VALID,34,VALID,0,
2013-09-13, 00:22:05,VALID,918.916,VALID,0,VALID,96.8021,VALID,0,VALID,20.717,VALID,352,VALID,0,
2013-09-13, 00:23:05,VALID,918.866,VALID,0,VALID,96.7945,VALID,0,VALID,20.6585,VALID,325,VALID,0,
2013-09-13, 00:24:05,VALID,918.827,VALID,0,VALID,96.7945,VALID,0.107441,VALID,20.6975,VALID,4,VALID,0,
2013-09-13, 00:25:05,VALID,918.84,VALID,0,VALID,96.7945,VALID,0,VALID,20.639,VALID,312,VALID,0,
2013-09-13, 00:26:05,VALID,918.783,VALID,0,VALID,96.8174,VALID,0,VALID,20.5999,VALID,15,VALID,0,
2013-09-13, 00:27:05,VALID,918.768,VALID,0,VALID,96.7945,VALID,0,VALID,20.5999,VALID,14,VALID,0,
2013-09-13, 00:28:05,VALID,918.763,VALID,0,VALID,96.7945,VALID,0,VALID,20.6194,VALID,20,VALID,0,
2013-09-13, 00:29:05,VALID,918.703,VALID,0,VALID,96.8098,VALID,0,VALID,20.6585,VALID,17,VALID,0,
2013-09-13, 00:30:05,VALID,918.699,VALID,0,VALID,96.8098,VALID,0,VALID,20.639,VALID,47,VALID,0,
2013-09-13, 00:31:05,VALID,918.65,VALID,0,VALID,96.8098,VALID,0,VALID,20.6405,VALID,21,VALID,0,
2013-09-13, 00:32:05,VALID,918.646,VALID,0,VALID,96.7793,VALID,0,VALID,20.639,VALID,67,VALID,0,
2013-09-13, 00:33:05,VALID,918.633,VALID,0,VALID,96.8174,VALID,0,VALID,20.621,VALID,34,VALID,0,
2013-09-13, 00:34:05,VALID,918.631,VALID,0,VALID,96.8098,VALID,0,VALID,20.5999,VALID,33,VALID,0,
2013-09-13, 00:35:05,VALID,918.664,VALID,0,VALID,96.825,VALID,0,VALID,20.5804,VALID,21,VALID,0,
2013-09-13, 00:36:05,VALID,918.652,VALID,0,VALID,96.8174,VALID,0,VALID,20.621,VALID,360,VALID,0,
2013-09-13, 00:37:05,VALID,918.658,VALID,0,VALID,96.8098,VALID,0,VALID,20.5625,VALID,359,VALID,0,
2013-09-13, 00:38:05,VALID,918.682,VALID,0,VALID,96.8021,VALID,0,VALID,20.5804,VALID,20,VALID,0,
2013-09-13, 00:39:05,VALID,918.659,VALID,0.2,VALID,96.8098,VALID,0,VALID,20.582,VALID,28,VALID,0,
2013-09-13, 00:40:05,VALID,918.662,VALID,0,VALID,96.8098,VALID,0,VALID,20.5235,VALID,338,VALID,0,
2013-09-13, 00:41:05,VALID,918.636,VALID,0,VALID,96.8098,VALID,0,VALID,20.4439,VALID,7,VALID,0,
2013-09-13, 00:42:05,VALID,918.628,VALID,0,VALID,96.8021,VALID,0,VALID,20.4454,VALID,21,VALID,0,
2013-09-13, 00:43:05,VALID,918.604,VALID,0,VALID,96.8021,VALID,0,VALID,20.4829,VALID,8,VALID,0,
2013-09-13, 00:44:05,VALID,918.593,VALID,0,VALID,96.8021,VALID,0,VALID,20.4064,VALID,5,VALID,0,
2013-09-13, 00:45:05,VALID,918.572,VALID,0,VALID,96.8021,VALID,0,VALID,20.3464,VALID,323,VALID,0,
2013-09-13, 00:46:05,VALID,918.54,VALID,0,VALID,96.8021,VALID,0,VALID,20.3269,VALID,17,VALID,0,
2013-09-13, 00:47:05,VALID,918.57,VALID,0,VALID,96.8021,VALID,0,VALID,20.3269,VALID,3,VALID,0,
2013-09-13, 00:48:05,VALID,918.55,VALID,0,VALID,96.7793,VALID,0,VALID,20.3464,VALID,9,VALID,0,
2013-09-13, 00:49:05,VALID,918.545,VALID,0,VALID,96.7945,VALID,0,VALID,20.3674,VALID,29,VALID,0,
2013-09-13, 00:50:05,VALID,918.535,VALID,0.2,VALID,96.8098,VALID,0,VALID,20.3284,VALID,11,VALID,0,
2013-09-13, 00:51:05,VALID,918.493,VALID,0,VALID,96.7945,VALID,0,VALID,20.3269,VALID,25,VALID,0,
2013-09-13, 00:52:05,VALID,918.47,VALID,0,VALID,96.8021,VALID,0,VALID,20.3464,VALID,29,VALID,0,
2013-09-13, 00:53:05,VALID,918.465,VALID,0,VALID,96.8098,VALID,0,VALID,20.3659,VALID,14,VALID,0,
2013-09-13, 00:54:05,VALID,918.441,VALID,0,VALID,96.8098,VALID,0,VALID,20.2879,VALID,14,VALID,0,
2013-09-13, 00:55:05,VALID,918.471,VALID,0,VALID,96.8021,VALID,0,VALID,20.2504,VALID,343,VALID,0,
2013-09-13, 00:56:05,VALID,918.474,VALID,0,VALID,96.8021,VALID,0,VALID,20.2293,VALID,7,VALID,0,
2013-09-13, 00:57:05,VALID,918.472,VALID,0,VALID,96.8098,VALID,0,VALID,20.2699,VALID,20,VALID,0,
2013-09-13, 00:58:05,VALID,918.488,VALID,0,VALID,96.8098,VALID,0,VALID,20.2309,VALID,3,VALID,0,
2013-09-13, 00:59:05,VALID,918.514,VALID,0,VALID,96.8098,VALID,0,VALID,20.2293,VALID,342,VALID,0,
2013-09-13, 01:00:05,VALID,918.52,VALID,0,VALID,96.8174,VALID,0,VALID,20.2309,VALID,7,VALID,0,
2013-09-13, 01:01:05,VALID,918.554,VALID,0,VALID,96.8098,VALID,0,VALID,20.2504,VALID,4,VALID,0,
2013-09-13, 01:02:05,VALID,918.531,VALID,0,VALID,96.8174,VALID,0,VALID,20.2309,VALID,14,VALID,0,
2013-09-13, 01:03:05,VALID,918.52,VALID,0,VALID,96.7945,VALID,0,VALID,20.2699,VALID,10,VALID,0,
2013-09-13, 01:04:05,VALID,918.525,VALID,0,VALID,96.8021,VALID,0,VALID,20.2293,VALID,5,VALID,0,
2013-09-13, 01:05:05,VALID,918.531,VALID,0,VALID,96.7869,VALID,0,VALID,20.1903,VALID,15,VALID,0,
2013-09-13, 01:06:05,VALID,918.522,VALID,0,VALID,96.7945,VALID,0,VALID,20.1919,VALID,12,VALID,0,
2013-09-13, 01:07:05,VALID,918.519,VALID,0,VALID,96.8174,VALID,0,VALID,20.1318,VALID,3,VALID,0,
2013-09-13, 01:08:05,VALID,918.542,VALID,0,VALID,96.8021,VALID,0,VALID,20.1318,VALID,5,VALID,0,
2013-09-13, 01:09:05,VALID,918.55,VALID,0,VALID,96.8174,VALID,0,VALID,20.1724,VALID,20,VALID,0,
2013-09-13, 01:10:05,VALID,918.555,VALID,0,VALID,96.8174,VALID,0,VALID,20.1724,VALID,37,VALID,0,
2013-09-13, 01:11:05,VALID,918.55,VALID,0,VALID,96.8403,VALID,0,VALID,20.1529,VALID,8,VALID,0,
2013-09-13, 01:12:05,VALID,918.509,VALID,0,VALID,96.825,VALID,0,VALID,20.1529,VALID,5,VALID,0,
2013-09-13, 01:13:05,VALID,918.497,VALID,0.2,VALID,96.8098,VALID,0,VALID,20.1724,VALID,4,VALID,0,
2013-09-13, 01:14:05,VALID,918.464,VALID,0,VALID,96.8174,VALID,0,VALID,20.1513,VALID,4,VALID,0,
2013-09-13, 01:15:05,VALID,918.433,VALID,0,VALID,96.8174,VALID,0,VALID,20.1513,VALID,2,VALID,0,
2013-09-13, 01:16:05,VALID,918.442,VALID,0,VALID,96.8326,VALID,0,VALID,20.1724,VALID,353,VALID,0,
2013-09-13, 01:17:05,VALID,918.398,VALID,0,VALID,96.8403,VALID,0,VALID,20.1123,VALID,334,VALID,0,
2013-09-13, 01:18:05,VALID,918.413,VALID,0,VALID,96.8403,VALID,0,VALID,20.1334,VALID,335,VALID,0,
2013-09-13, 01:19:05,VALID,918.371,VALID,0,VALID,96.8479,VALID,0,VALID,20.1334,VALID,42,VALID,0,
2013-09-13, 01:20:05,VALID,918.391,VALID,0.2,VALID,96.825,VALID,0,VALID,20.0944,VALID,333,VALID,0,
2013-09-13, 01:21:05,VALID,918.352,VALID,0,VALID,96.825,VALID,0,VALID,20.1529,VALID,338,VALID,0,
2013-09-13, 01:22:05,VALID,918.32,VALID,0,VALID,96.8174,VALID,0,VALID,20.0749,VALID,349,VALID,0,
2013-09-13, 01:23:05,VALID,918.361,VALID,0,VALID,96.8098,VALID,0,VALID,20.0944,VALID,349,VALID,0,
2013-09-13, 01:24:05,VALID,918.367,VALID,0,VALID,96.825,VALID,0,VALID,20.0944,VALID,349,VALID,0,
2013-09-13, 01:25:04,VALID,918.364,VALID,0,VALID,96.8174,VALID,0,VALID,20.0749,VALID,340,VALID,0,
2013-09-13, 01:26:04,VALID,918.371,VALID,0,VALID,96.8479,VALID,0,VALID,20.0944,VALID,333,VALID,0,
2013-09-13, 01:27:04,VALID,918.403,VALID,0,VALID,96.8403,VALID,0,VALID,20.1139,VALID,333,VALID,0,
2013-09-13, 01:28:04,VALID,918.39,VALID,0,VALID,96.8403,VALID,0,VALID,20.1334,VALID,333,VALID,0,
2013-09-13, 01:29:04,VALID,918.447,VALID,0,VALID,96.8479,VALID,0,VALID,20.1139,VALID,333,VALID,0,
2013-09-13, 01:30:04,VALID,918.412,VALID,0.2,VALID,96.8555,VALID,0,VALID,20.1529,VALID,333,VALID,0,
2013-09-13, 01:31:04,VALID,918.397,VALID,0,VALID,96.8555,VALID,0,VALID,20.1334,VALID,333,VALID,0,
2013-09-13, 01:32:04,VALID,918.386,VALID,0,VALID,96.8479,VALID,0,VALID,20.1529,VALID,333,VALID,0,
2013-09-13, 01:33:04,VALID,918.387,VALID,0,VALID,96.8403,VALID,0,VALID,20.1334,VALID,333,VALID,0,
2013-09-13, 01:34:04,VALID,918.397,VALID,0,VALID,96.8403,VALID,0,VALID,20.0733,VALID,333,VALID,0,
2013-09-13, 01:35:04,VALID,918.398,VALID,0,VALID,96.8403,VALID,0,VALID,20.0944,INVALID,360,VALID,0,
2013-09-13, 01:36:04,VALID,918.392,VALID,0,VALID,96.8479,VALID,0,VALID,20.0944,VALID,333,VALID,0,
2013-09-13, 01:37:04,VALID,918.407,VALID,0,VALID,96.8403,VALID,0,VALID,20.1139,VALID,333,VALID,0,
2013-09-13, 01:38:04,VALID,918.395,VALID,0,VALID,96.8479,VALID,0,VALID,20.0538,VALID,349,VALID,0,
2013-09-13, 01:39:04,VALID,918.393,VALID,0,VALID,96.825,VALID,0.107441,VALID,20.0523,VALID,353,VALID,0,
2013-09-13, 01:40:04,VALID,918.404,VALID,0,VALID,96.8479,VALID,0.107441,VALID,20.0523,VALID,358,VALID,0,
2013-09-13, 01:41:04,VALID,918.396,VALID,0,VALID,96.8403,VALID,0.107441,VALID,20.1123,VALID,14,VALID,0,
2013-09-13, 01:42:04,VALID,918.393,VALID,0,VALID,96.8403,VALID,0.107441,VALID,20.0718,VALID,13,VALID,0,
2013-09-13, 01:43:04,VALID,918.421,VALID,0,VALID,96.8326,VALID,0.107441,VALID,20.0928,VALID,8,VALID,0,
2013-09-13, 01:44:04,VALID,918.407,VALID,0,VALID,96.8326,VALID,0,VALID,20.0733,VALID,2,VALID,0,
2013-09-13, 01:45:04,VALID,918.442,VALID,0,VALID,96.825,VALID,0,VALID,20.0538,VALID,350,VALID,0,
2013-09-13, 01:46:04,VALID,918.446,VALID,0,VALID,96.825,VALID,0.107441,VALID,20.0733,VALID,350,VALID,0,
2013-09-13, 01:47:04,VALID,918.465,VALID,0,VALID,96.8174,VALID,0,VALID,20.0538,VALID,324,VALID,0,
2013-09-13, 01:48:04,VALID,918.432,VALID,0,VALID,96.8326,VALID,0,VALID,20.0538,VALID,330,VALID,0,
2013-09-13, 01:49:04,VALID,918.408,VALID,0,VALID,96.825,VALID,0.107441,VALID,20.0733,VALID,316,VALID,0,
2013-09-13, 01:50:04,VALID,918.412,VALID,0,VALID,96.825,VALID,0,VALID,20.0928,VALID,317,VALID,0,
2013-09-13, 01:51:04,VALID,918.402,VALID,0,VALID,96.825,VALID,0,VALID,20.0718,VALID,315,VALID,0,
2013-09-13, 01:52:04,VALID,918.39,VALID,0,VALID,96.8174,VALID,0,VALID,20.1123,VALID,315,VALID,0,
2013-09-13, 01:53:04,VALID,918.362,VALID,0,VALID,96.8174,VALID,0,VALID,20.1123,VALID,315,VALID,0,
2013-09-13, 01:54:04,VALID,918.377,VALID,0,VALID,96.825,VALID,0,VALID,20.1318,VALID,315,VALID,0,
2013-09-13, 01:55:04,VALID,918.347,VALID,0,VALID,96.825,VALID,0,VALID,20.1303,VALID,315,VALID,0,
2013-09-13, 01:56:04,VALID,918.332,VALID,0,VALID,96.825,VALID,0,VALID,20.1708,VALID,315,VALID,0,
2013-09-13, 01:57:04,VALID,918.337,VALID,0,VALID,96.8403,VALID,0,VALID,20.1903,VALID,315,VALID,0,
2013-09-13, 01:58:04,VALID,918.325,VALID,0,VALID,96.8326,VALID,0,VALID,20.2293,VALID,325,VALID,0,
2013-09-13, 01:59:04,VALID,918.309,VALID,0,VALID,96.8098,VALID,0,VALID,20.2098,VALID,324,VALID,0,
2013-09-13, 02:00:04,VALID,918.306,VALID,0,VALID,96.8326,VALID,0,VALID,20.1123,VALID,319,VALID,0,
2013-09-13, 02:01:04,VALID,918.303,VALID,0,VALID,96.7945,VALID,0,VALID,20.0913,VALID,354,VALID,0,
2013-09-13, 02:02:04,VALID,918.278,VALID,0,VALID,96.8021,VALID,0.107441,VALID,20.0733,VALID,353,VALID,0,
2013-09-13, 02:03:04,VALID,918.273,VALID,0,VALID,96.8021,VALID,0.107441,VALID,20.0928,VALID,353,VALID,0,
2013-09-13, 02:04:04,VALID,918.237,VALID,0,VALID,96.8021,VALID,0,VALID,20.0538,VALID,9,VALID,0,
2013-09-13, 02:05:04,VALID,918.238,VALID,0,VALID,96.8098,VALID,0,VALID,20.0328,VALID,18,VALID,0,
2013-09-13, 02:06:04,VALID,918.217,VALID,0,VALID,96.7869,VALID,0.107441,VALID,20.0343,VALID,357,VALID,0,
2013-09-13, 02:07:04,VALID,918.231,VALID,0,VALID,96.7945,VALID,0.107441,VALID,19.9938,VALID,358,VALID,0,
2013-09-13, 02:08:04,VALID,918.195,VALID,0,VALID,96.7793,VALID,0,VALID,19.9743,VALID,7,VALID,0,
2013-09-13, 02:09:04,VALID,918.208,VALID,0,VALID,96.7793,VALID,0,VALID,20.0343,VALID,353,VALID,0,
2013-09-13, 02:10:04,VALID,918.178,VALID,0,VALID,96.764,VALID,0,VALID,20.0343,VALID,19,VALID,0,
2013-09-13, 02:11:04,VALID,918.195,VALID,0,VALID,96.7793,VALID,0,VALID,20.0148,VALID,349,VALID,0,
2013-09-13, 02:12:04,VALID,918.177,VALID,0,VALID,96.7716,VALID,0.107441,VALID,19.9743,VALID,3,VALID,0,
2013-09-13, 02:13:04,VALID,918.14,VALID,0,VALID,96.7793,VALID,0.107441,VALID,19.9953,VALID,15,VALID,0,
2013-09-13, 02:14:04,VALID,918.19,VALID,0,VALID,96.7869,VALID,0.107441,VALID,19.9953,VALID,353,VALID,0,
2013-09-13, 02:15:04,VALID,918.19,VALID,0,VALID,96.7869,VALID,0,VALID,19.9758,VALID,353,VALID,0,
2013-09-13, 02:16:04,VALID,918.215,VALID,0,VALID,96.7945,VALID,0.107441,VALID,19.9953,VALID,353,VALID,0,
2013-09-13, 02:17:04,VALID,918.223,VALID,0.2,VALID,96.764,VALID,0.107441,VALID,19.9743,VALID,353,VALID,0,
2013-09-13, 02:18:04,VALID,918.203,VALID,0,VALID,96.7793,VALID,0,VALID,19.9758,VALID,353,VALID,0,
2013-09-13, 02:19:04,VALID,918.236,VALID,0,VALID,96.7945,VALID,0.107441,VALID,19.9743,VALID,353,VALID,0,
2013-09-13, 02:20:04,VALID,918.207,VALID,0,VALID,96.7869,VALID,0,VALID,20.0148,VALID,353,VALID,0,
2013-09-13, 02:21:04,VALID,918.186,VALID,0,VALID,96.7945,VALID,0,VALID,19.9953,VALID,357,VALID,0,
2013-09-13, 02:22:04,VALID,918.137,VALID,0,VALID,96.7716,VALID,0.107441,VALID,19.9758,VALID,14,VALID,0,
2013-09-13, 02:23:04,VALID,918.141,VALID,0,VALID,96.7869,VALID,0,VALID,19.9758,VALID,2,VALID,0,
2013-09-13, 02:24:04,VALID,918.131,VALID,0.2,VALID,96.7793,VALID,0,VALID,19.9353,VALID,352,VALID,0,
2013-09-13, 02:25:04,VALID,918.111,VALID,0,VALID,96.7716,VALID,0,VALID,19.9368,VALID,4,VALID,0,
2013-09-13, 02:26:04,VALID,918.12,VALID,0,VALID,96.7869,VALID,0,VALID,19.9563,VALID,4,VALID,0,
2013-09-13, 02:27:04,VALID,918.103,VALID,0,VALID,96.764,VALID,0,VALID,19.9563,VALID,3,VALID,0,
2013-09-13, 02:28:04,VALID,918.06,VALID,0,VALID,96.8021,VALID,0,VALID,19.9758,VALID,342,VALID,0,
2013-09-13, 02:29:04,VALID,918.106,VALID,0,VALID,96.8098,VALID,0.107441,VALID,19.9758,VALID,1,VALID,0,
2013-09-13, 02:30:04,VALID,918.102,VALID,0.2,VALID,96.7945,VALID,0,VALID,19.9563,VALID,1,VALID,0,
2013-09-13, 02:31:04,VALID,918.114,VALID,0,VALID,96.7869,VALID,0,VALID,19.9758,VALID,1,VALID,0,
2013-09-13, 02:32:04,VALID,918.095,VALID,0,VALID,96.7945,VALID,0,VALID,19.9563,VALID,1,VALID,0,
2013-09-13, 02:33:04,VALID,918.092,VALID,0.2,VALID,96.8021,VALID,0,VALID,19.9953,VALID,1,VALID,0,
2013-09-13, 02:34:04,VALID,918.097,VALID,0,VALID,96.8098,VALID,0,VALID,19.9368,VALID,1,VALID,0,
2013-09-13, 02:35:04,VALID,918.102,VALID,0,VALID,96.7945,VALID,0,VALID,19.9758,VALID,1,VALID,0,
2013-09-13, 02:36:04,VALID,918.056,VALID,0.2,VALID,96.7945,VALID,0.107441,VALID,19.9383,VALID,1,VALID,0,
2013-09-13, 02:37:04,VALID,918.074,VALID,0,VALID,96.8098,VALID,0,VALID,19.9578,VALID,1,VALID,0,
2013-09-13, 02:38:04,VALID,918.039,VALID,0.2,VALID,96.8098,VALID,0,VALID,19.8783,VALID,5,VALID,0,
2013-09-13, 02:39:04,VALID,918.009,VALID,0,VALID,96.8021,VALID,0,VALID,19.8783,VALID,33,VALID,0,
2013-09-13, 02:40:04,VALID,918.02,VALID,0,VALID,96.7945,VALID,0.107441,VALID,19.8978,VALID,15,VALID,0,
2013-09-13, 02:41:04,VALID,918.054,VALID,0.2,VALID,96.7869,VALID,0,VALID,19.8588,VALID,11,VALID,0,
2013-09-13, 02:42:04,VALID,918.021,VALID,0,VALID,96.7869,VALID,0.107441,VALID,19.8783,VALID,8,VALID,0,
2013-09-13, 02:43:04,VALID,918.015,VALID,0,VALID,96.7716,VALID,0.107441,VALID,19.8003,VALID,11,VALID,0,
2013-09-13, 02:44:04,VALID,917.995,VALID,0,VALID,96.7945,VALID,0,VALID,19.8393,VALID,1,VALID,0,
2013-09-13, 02:45:04,VALID,917.972,VALID,0.2,VALID,96.764,VALID,0,VALID,19.8198,VALID,337,VALID,0,
2013-09-13, 02:46:04,VALID,917.943,VALID,0,VALID,96.7945,VALID,0,VALID,19.8003,VALID,345,VALID,0,
2013-09-13, 02:47:04,VALID,917.929,VALID,0,VALID,96.7793,VALID,0,VALID,19.7808,VALID,345,VALID,0,
2013-09-13, 02:48:04,VALID,917.914,VALID,0.2,VALID,96.7869,VALID,0,VALID,19.8198,VALID,344,VALID,0,
2013-09-13, 02:49:04,VALID,917.89,VALID,0,VALID,96.8021,VALID,0.107441,VALID,19.8393,VALID,344,VALID,0,
2013-09-13, 02:50:04,VALID,917.868,VALID,0,VALID,96.8098,VALID,0,VALID,19.8393,VALID,345,VALID,0,
2013-09-13, 02:51:04,VALID,917.837,VALID,0.2,VALID,96.825,VALID,0.107441,VALID,19.8588,VALID,351,VALID,0,
2013-09-13, 02:52:04,VALID,917.769,VALID,0,VALID,96.8021,VALID,0.107441,VALID,19.8003,VALID,326,VALID,0,
2013-09-13, 02:53:04,VALID,917.734,VALID,0,VALID,96.7945,VALID,0.107441,VALID,19.7808,VALID,331,VALID,0,
2013-09-13, 02:54:04,VALID,917.704,VALID,0.2,VALID,96.7869,VALID,0.107441,VALID,19.8003,VALID,330,VALID,0,
2013-09-13, 02:55:04,VALID,917.666,VALID,0,VALID,96.8098,VALID,0.107441,VALID,19.8393,VALID,330,VALID,0,
2013-09-13, 02:56:04,VALID,917.646,VALID,0,VALID,96.8174,VALID,0.107441,VALID,19.8978,VALID,330,VALID,0,
2013-09-13, 02:57:04,VALID,917.622,VALID,0.2,VALID,96.8326,VALID,0,VALID,19.9368,VALID,330,VALID,0,
2013-09-13, 02:58:04,VALID,917.611,VALID,0,VALID,96.825,VALID,0.107441,VALID,19.9368,VALID,344,VALID,0,
2013-09-13, 02:59:04,VALID,917.614,VALID,0,VALID,96.8479,VALID,0.107441,VALID,19.9758,VALID,15,VALID,0,
2013-09-13, 03:00:04,VALID,917.611,VALID,0,VALID,96.8403,VALID,0,VALID,19.9758,VALID,16,VALID,0,
2013-09-13, 03:01:04,VALID,917.641,VALID,0,VALID,96.8403,VALID,0,VALID,19.9563,VALID,16,VALID,0,
2013-09-13, 03:02:04,VALID,917.63,VALID,0.2,VALID,96.825,VALID,0,VALID,19.9563,VALID,16,VALID,0,
2013-09-13, 03:03:04,VALID,917.66,VALID,0,VALID,96.8479,VALID,0.107441,VALID,19.8978,VALID,15,VALID,0,
2013-09-13, 03:04:04,VALID,917.637,VALID,0,VALID,96.825,VALID,0.107441,VALID,19.7988,VALID,26,VALID,0,
2013-09-13, 03:05:04,VALID,917.647,VALID,0,VALID,96.8174,VALID,0,VALID,19.7223,VALID,34,VALID,0,
2013-09-13, 03:06:04,VALID,917.671,VALID,0,VALID,96.8021,VALID,0,VALID,19.7223,VALID,23,VALID,0,
2013-09-13, 03:07:04,VALID,917.594,VALID,0,VALID,96.8174,VALID,0,VALID,19.6833,VALID,40,VALID,0,
2013-09-13, 03:08:04,VALID,917.624,VALID,0,VALID,96.8098,VALID,0,VALID,19.6833,VALID,32,VALID,0,
2013-09-13, 03:09:04,VALID,917.629,VALID,0.2,VALID,96.825,VALID,0.107441,VALID,19.6833,VALID,63,VALID,0,
2013-09-13, 03:10:04,VALID,917.61,VALID,0,VALID,96.825,VALID,0.107441,VALID,19.7028,VALID,56,VALID,0,
2013-09-13, 03:11:04,VALID,917.595,VALID,0,VALID,96.8326,VALID,0,VALID,19.6833,VALID,41,VALID,0,
2013-09-13, 03:12:04,VALID,917.566,VALID,0,VALID,96.8403,VALID,0,VALID,19.6833,VALID,18,VALID,0,
2013-09-13, 03:13:04,VALID,917.578,VALID,0,VALID,96.825,VALID,0.107441,VALID,19.6833,VALID,10,VALID,0,
2013-09-13, 03:14:04,VALID,917.534,VALID,0,VALID,96.8326,VALID,0,VALID,19.6443,VALID,12,VALID,0,
2013-09-13, 03:15:04,VALID,917.546,VALID,0,VALID,96.8403,VALID,0,VALID,19.6248,VALID,348,VALID,0,
2013-09-13, 03:16:04,VALID,917.54,VALID,0,VALID,96.8631,VALID,0,VALID,19.6248,VALID,347,VALID,0,
2013-09-13, 03:17:04,VALID,917.571,VALID,0,VALID,96.8479,VALID,0,VALID,19.5858,VALID,353,VALID,0,
2013-09-13, 03:18:04,VALID,917.538,VALID,0,VALID,96.8555,VALID,0.107441,VALID,19.5858,VALID,360,VALID,0,
2013-09-13, 03:19:04,VALID,917.568,VALID,0,VALID,96.8555,VALID,0.107441,VALID,19.6053,VALID,360,VALID,0,
2013-09-13, 03:20:04,VALID,917.593,VALID,0,VALID,96.8936,VALID,0,VALID,19.5663,VALID,356,VALID,0,
2013-09-13, 03:21:04,VALID,917.572,VALID,0,VALID,96.8555,VALID,0,VALID,19.6053,VALID,356,VALID,0,
2013-09-13, 03:22:04,VALID,917.606,VALID,0,VALID,96.886,VALID,0.107441,VALID,19.6443,VALID,3,VALID,0,
2013-09-13, 03:23:04,VALID,917.615,VALID,0,VALID,96.8707,VALID,0.107441,VALID,19.6053,VALID,10,VALID,0,
2013-09-13, 03:24:04,VALID,917.618,VALID,0,VALID,96.8784,VALID,0,VALID,19.6053,VALID,10,VALID,0,
2013-09-13, 03:25:04,VALID,917.676,VALID,0,VALID,96.886,VALID,0,VALID,19.5858,VALID,10,VALID,0,
2013-09-13, 03:26:04,VALID,917.66,VALID,0,VALID,96.886,VALID,0.107441,VALID,19.6053,VALID,15,VALID,0,
2013-09-13, 03:27:04,VALID,917.719,VALID,0,VALID,96.9012,VALID,0,VALID,19.6248,VALID,15,VALID,0,
2013-09-13, 03:28:04,VALID,917.702,VALID,0,VALID,96.9165,VALID,0,VALID,19.6443,VALID,15,VALID,0,
2013-09-13, 03:29:04,VALID,917.739,VALID,0.2,VALID,96.9241,VALID,0,VALID,19.6443,VALID,15,VALID,0,
2013-09-13, 03:30:04,VALID,917.762,VALID,0,VALID,96.9012,VALID,0,VALID,19.6053,VALID,15,VALID,0,
2013-09-13, 03:31:04,VALID,917.768,VALID,0,VALID,96.886,VALID,0.107441,VALID,19.5663,VALID,15,VALID,0,
2013-09-13, 03:32:04,VALID,917.819,VALID,0,VALID,96.9089,VALID,0,VALID,19.5663,VALID,15,VALID,0,
2013-09-13, 03:33:04,VALID,917.817,VALID,0,VALID,96.9241,VALID,0,VALID,19.5468,VALID,15,VALID,0,
2013-09-13, 03:34:04,VALID,917.835,VALID,0,VALID,96.9317,VALID,0,VALID,19.5468,VALID,15,VALID,0,
2013-09-13, 03:35:04,VALID,917.865,VALID,0,VALID,96.9012,VALID,0,VALID,19.5273,VALID,35,VALID,0,
2013-09-13, 03:36:04,VALID,917.882,VALID,0,VALID,96.9241,VALID,0,VALID,19.5273,VALID,56,VALID,0,
2013-09-13, 03:37:04,VALID,917.878,VALID,0,VALID,96.9317,VALID,0.107441,VALID,19.5273,VALID,118,VALID,0,
2013-09-13, 03:38:04,VALID,917.89,VALID,0,VALID,96.9394,VALID,0,VALID,19.5273,VALID,112,VALID,0,
2013-09-13, 03:39:04,VALID,917.927,VALID,0,VALID,96.9394,VALID,0.107441,VALID,19.5273,VALID,124,VALID,0,
2013-09-13, 03:40:04,VALID,917.941,VALID,0,VALID,96.947,VALID,0,VALID,19.5078,VALID,120,VALID,0,
2013-09-13, 03:41:04,VALID,917.93,VALID,0,VALID,96.9317,VALID,0.107441,VALID,19.5078,VALID,119,VALID,0,
2013-09-13, 03:42:04,VALID,917.976,VALID,0,VALID,96.9241,VALID,0,VALID,19.5078,VALID,133,VALID,0,
2013-09-13, 03:43:04,VALID,917.975,VALID,0,VALID,96.947,VALID,0,VALID,19.5273,VALID,136,VALID,0,
2013-09-13, 03:44:04,VALID,917.995,VALID,0,VALID,96.9394,VALID,0.107441,VALID,19.5663,VALID,150,VALID,0,
2013-09-13, 03:45:04,VALID,917.97,VALID,0,VALID,96.9394,VALID,0.107441,VALID,19.5858,VALID,147,VALID,0,
2013-09-13, 03:46:04,VALID,917.956,VALID,0,VALID,96.9622,VALID,0.107441,VALID,19.5858,VALID,170,VALID,0,
2013-09-13, 03:47:04,VALID,917.943,VALID,0,VALID,96.9622,VALID,0.107441,VALID,19.6053,VALID,158,VALID,0,
2013-09-13, 03:48:04,VALID,917.96,VALID,0,VALID,96.9241,VALID,0,VALID,19.6053,VALID,175,VALID,0,
2013-09-13, 03:49:04,VALID,917.943,VALID,0,VALID,96.947,VALID,0,VALID,19.6053,VALID,165,VALID,0,
2013-09-13, 03:50:04,VALID,917.891,VALID,0,VALID,96.9546,VALID,0.107441,VALID,19.6248,VALID,165,VALID,0,
2013-09-13, 03:51:04,VALID,917.885,VALID,0,VALID,96.9546,VALID,0,VALID,19.6443,VALID,170,VALID,0,
2013-09-13, 03:52:04,VALID,917.883,VALID,0,VALID,96.9698,VALID,0,VALID,19.6443,VALID,170,VALID,0,
2013-09-13, 03:53:04,VALID,917.878,VALID,0,VALID,96.9622,VALID,0.107441,VALID,19.6443,VALID,170,VALID,0,
2013-09-13, 03:54:04,VALID,917.873,VALID,0,VALID,96.9775,VALID,0,VALID,19.6443,VALID,168,VALID,0,
2013-09-13, 03:55:04,VALID,917.875,VALID,0,VALID,96.9622,VALID,0,VALID,19.6443,VALID,163,VALID,0,
2013-09-13, 03:56:04,VALID,917.846,VALID,0,VALID,96.9622,VALID,0,VALID,19.6638,VALID,159,VALID,0,